Erie, PA

2:05 AM EDT on May 28, 2018 (GMT -0400)
Erie International

Weather History for KERI - October, 2013

Change the Weather History Date:

Friday, October 25, 2013

  Actual Average Record
Temperature  
Mean Temperature 45 °F 50 °F  
Max Temperature 49 °F 58 °F 81 °F (2012)
Min Temperature 40 °F 43 °F 30 °F (2002)
Degree Days  
Heating Degree Days 20 15  
Month to date heating degree days 208 285  
Since 1 July heating degree days 340 409  
Cooling Degree Days 0 0  
Month to date cooling degree days 20 7  
Year to date cooling degree days 706 636  
Moisture  
Dew Point 34 °F    
Average Humidity 69    
Maximum Humidity 85    
Minimum Humidity 53    
Precipitation  
Precipitation 0.03 in 0.11 in 1.18 in (1980)
Month to date precipitation 5.41 3.31  
Year to date precipitation 43.26 33.75  
Snow  
Snow 0.00 in 0.00 in - ()
Month to date snowfall 0.0 0.1  
Since 1 July snowfall 0.0 0.1  
Since 1 September snowfall 0.0 0.1  
Snow Depth 0.00 in    
Sea Level Pressure  
Sea Level Pressure 30.19 in    
Wind  
Wind Speed 13 mph (West)    
Max Wind Speed 18 mph    
Max Gust Speed 26 mph    
Visibility 10 miles    
Events Rain    
T = Trace of Precipitation, MM = Missing Value Source: NWS Daily Summary

Daily Weather History Graph

Daily Weather History Graph

Search for Another Location

Airport or City:

Astronomy

Oct. 25, 2013 Rise Set
Actual Time 7:45 AM EDT 6:23 PM EDT
Civil Twilight 7:16 AM EDT 6:52 PM EDT
Nautical Twilight 6:43 AM EDT 7:24 PM EDT
Astronomical Twilight 6:11 AM EDT 7:57 PM EDT
Moon 11:40 PM EDT (10/25) 1:26 PM EDT (10/25)
Length of Visible Light 11h 35m
Length of Day
10h 38m
Waning Gibbous, 62% of the Moon is Illuminated
Oct 25
Waning Gibbous
Oct 26
Last Quarter
Nov 3
New
Nov 10
First Quarter
Nov 17
Full

Hourly Weather History & Observations

Time (EDT) Temp. Windchill Dew Point Humidity Pressure Visibility Wind Dir Wind Speed Gust Speed Precip Events Conditions
12:37 AM 44.6 °F 38.1 °F 33.8 °F 66% 30.08 in 10.0 mi WNW 13.8 mph 20.7 mph N/A   Overcast
12:51 AM 45.0 °F 38.9 °F 34.0 °F 65% 30.09 in 10.0 mi NW 12.7 mph 19.6 mph N/A   Overcast
1:49 AM 44.6 °F 37.4 °F 35.6 °F 71% 30.08 in 10.0 mi NW 16.1 mph 23.0 mph N/A   Overcast
1:51 AM 45.0 °F 38.5 °F 36.0 °F 71% 30.10 in 10.0 mi NNW 13.8 mph 23.0 mph N/A   Overcast
2:38 AM 44.6 °F 38.1 °F 35.6 °F 71% 30.09 in 10.0 mi WNW 13.8 mph 24.2 mph 0.00 in   Overcast
2:51 AM 45.0 °F 39.3 °F 35.1 °F 68% 30.11 in 10.0 mi NW 11.5 mph 21.9 mph 0.00 in   Overcast
3:51 AM 44.1 °F 37.4 °F 36.0 °F 73% 30.12 in 10.0 mi WNW 13.8 mph 26.5 mph 0.00 in   Overcast
4:51 AM 44.1 °F 36.8 °F 36.0 °F 73% 30.14 in 10.0 mi WNW 16.1 mph 24.2 mph 0.00 in   Overcast
5:51 AM 44.1 °F 37.4 °F 36.0 °F 73% 30.16 in 10.0 mi WNW 13.8 mph 24.2 mph 0.00 in   Overcast
6:34 AM 44.6 °F 38.1 °F 35.6 °F 71% 30.17 in 10.0 mi WNW 13.8 mph 18.4 mph N/A   Mostly Cloudy
6:42 AM 44.6 °F 38.1 °F 35.6 °F 71% 30.17 in 10.0 mi NW 13.8 mph 20.7 mph N/A   Mostly Cloudy
6:51 AM 44.1 °F 37.7 °F 35.1 °F 71% 30.19 in 10.0 mi NW 12.7 mph 21.9 mph N/A   Mostly Cloudy
7:13 AM 44.6 °F 38.4 °F 35.6 °F 71% 30.18 in 10.0 mi WNW 12.7 mph 18.4 mph N/A   Mostly Cloudy
7:51 AM 44.1 °F 38.1 °F 35.1 °F 71% 30.21 in 10.0 mi WNW 11.5 mph 19.6 mph N/A   Mostly Cloudy
8:08 AM 44.6 °F 38.8 °F 33.8 °F 66% 30.19 in 10.0 mi WNW 11.5 mph 19.6 mph N/A   Mostly Cloudy
8:51 AM 45.0 °F 38.9 °F 34.0 °F 65% 30.23 in 10.0 mi West 12.7 mph 20.7 mph N/A   Scattered Clouds
9:51 AM 46.0 °F 41.0 °F 33.1 °F 61% 30.25 in 10.0 mi WNW 10.4 mph 20.7 mph N/A   Mostly Cloudy
10:51 AM 45.0 °F 38.9 °F 32.0 °F 60% 30.27 in 10.0 mi West 12.7 mph 19.6 mph N/A   Overcast
11:51 AM 46.9 °F - 33.1 °F 59% 30.27 in 10.0 mi West 13.8 mph 24.2 mph N/A   Scattered Clouds
12:51 PM 46.0 °F 39.9 °F 33.1 °F 61% 30.27 in 10.0 mi West 13.8 mph 19.6 mph N/A   Mostly Cloudy
1:51 PM 46.0 °F 39.9 °F 33.1 °F 61% 30.25 in 10.0 mi West 13.8 mph 20.7 mph N/A   Overcast
2:51 PM 48.9 °F - 34.0 °F 56% 30.25 in 10.0 mi West 16.1 mph 21.9 mph N/A   Mostly Cloudy
3:51 PM 46.0 °F 40.2 °F 30.9 °F 56% 30.25 in 10.0 mi WSW 12.7 mph 19.6 mph N/A   Scattered Clouds
4:51 PM 45.0 °F 39.3 °F 34.0 °F 65% 30.25 in 10.0 mi SW 11.5 mph - N/A   Overcast
5:51 PM 43.0 °F 38.8 °F 36.0 °F 76% 30.24 in 10.0 mi SSW 6.9 mph - 0.00 in Rain Light Rain
6:51 PM 42.1 °F 34.9 °F 33.1 °F 70% 30.25 in 6.0 mi WSW 13.8 mph 20.7 mph 0.00 in Rain Rain
7:51 PM 41.0 °F 33.1 °F 35.1 °F 79% 30.24 in 10.0 mi SW 15.0 mph - 0.02 in   Overcast
8:17 PM 41.0 °F 38.0 °F 33.8 °F 76% 30.22 in 10.0 mi West 4.6 mph - 0.01 in Rain Light Rain
8:28 PM 41.0 °F 39.0 °F 35.6 °F 81% 30.22 in 10.0 mi SW 3.5 mph - 0.01 in Rain Light Rain
8:51 PM 39.9 °F 37.8 °F 35.1 °F 83% 30.22 in 10.0 mi South 3.5 mph - 0.01 in   Overcast
9:51 PM 42.1 °F 35.7 °F 30.9 °F 65% 30.20 in 10.0 mi SSW 11.5 mph - N/A   Overcast
10:51 PM 43.0 °F 37.2 °F 28.9 °F 58% 30.19 in 10.0 mi SW 10.4 mph - N/A   Overcast
11:51 PM 42.1 °F 33.9 °F 28.9 °F 60% 30.18 in 10.0 mi SSW 17.3 mph 25.3 mph N/A   Overcast